STAR ONE C3

Last updated on Sun Jun 21 2026 00:03:05 GMT+0000 (Coordinated Universal Time)

1 38991U 12062A 26171.37127980 .00000000 00000+0 00000+0 0 9993 2 38991 0.0196 8.7180 0002534 93.9811 224.5560 1.00267776 49796
UTC large
Height (km)
Speed (km/s)
/
Latitude / Longitude
Inclination (degrees)
Orbital Period (minutes)
Azimuth
Elevation
Range (km)
Doppler Factor

Next 0 passes for location: London (51.5072 / 0.1276)

No passes found over London.
STAR ONE C3